Regional Weather Roundup
Issued by NWS Columbia, SC

Home | Current Version | Previous Version | Text Only | Print | Product List | Glossary On
Versions: 1 2 3 4 5 6 7 8 9 10 11 12 13 14 15 16 17 18 19 20 21 22 23 24 25 26 27 28 29 30 31 32 33 34 35 36 37 38 39 40 41 42 43 44 45 46 47 48 49 50
000
ASUS42 KCAE 181710
RWRCAE
REGIONAL WEATHER ROUNDUP
NATIONAL WEATHER SERVICE COLUMBIA SC
100 PM EDT FRI AUG 18 2017

NOTE: "FAIR" INDICATES FEW OR NO CLOUDS BELOW 12,000 FEET WITH NO
SIGNIFICANT WEATHER AND/OR OBSTRUCTIONS TO VISIBILITY.

NOT ALL STATIONS ARE QUALITY CONTROLLED BY THE NATIONAL
WEATHER SERVICE. USE DATA WITH CAUTION...ESPECIALLY
DEWPOINT OBSERVATIONS.

SCZ001>056-GAZ040-063>065-077-181800-
...UPSTATE SOUTH CAROLINA...

CITY           SKY/WX    TMP DP  RH WIND       PRES   REMARKS
ANDERSON       SUNNY     91  70  49 W14       29.96F HX  96
LIBERTY        MOSUNNY   90  73  57 W8        29.96F HX  98
SPARTANBURG    SUNNY     90  70  51 SW7       29.94F HX  95
CLEMSON        MOSUNNY   90  72  55 W9        29.97F HX  97
GREENVILLE     MOSUNNY   91  71  51 W12       29.97F HX  97
GREENWOOD      SUNNY     92  73  53 SW16G22   29.97F HX 100
GREER          MOSUNNY   90  72  55 W9        29.95F HX  97
ROCK HILL      SUNNY     90  72  55 W10       29.95S HX  97
CHESTER        MOSUNNY   90  68  48 SW3       29.95F
LAURENS        MOSUNNY   91  70  49 W13       29.95F HAZE    HX  97


...CENTRAL SOUTH CAROLINA...

CITY           SKY/WX    TMP DP  RH WIND       PRES   REMARKS
COLUMBIA APT   MOSUNNY   95  72  47 W9        29.93F HX 103
COLUMBIA OWENS SUNNY     95  70  44 SW10      29.94F HX 101
MCENTIRE ANGB  MOSUNNY   94  70  46 W10       29.95F HX 100
ORANGEBURG     MOSUNNY   93  72  50 W8G18     29.96F HX 101
SUMTER SHAW    MOSUNNY   94  73  49 SW6       29.92F HX 103
NEWBERRY       PTSUNNY   91  72  52 W9        29.98F HX  98
AIKEN          FAIR      90  72  55 SW9       30.00F HX  96
BARNWELL       FAIR      95  73  49 VRB7G13   29.96F HX 105
MANNING        FAIR      90  73  58 CALM      29.95F HX  98
CAMDEN         FAIR      93  70  46 SW12      29.94F HX  99
LANCASTER      SUNNY     91  72  52 W7        29.93F HX  98
WINNSBORO      SUNNY     91  68  46 W10       29.95F HX  95


...EASTERN AND COASTAL SOUTH CAROLINA...

CITY           SKY/WX    TMP DP  RH WIND       PRES   REMARKS
MYRTLE BEACH   PTSUNNY   91  75  59 SW8       29.96F HX 102
N MYRTLE BCH   MOSUNNY   88  80  77 S13       29.95F HX 104
CONWAY         FAIR      90  75  62 W3        29.95F HX 100
MARION         FAIR      93  73  52 SW10      29.94F HX 102
HARTSVILLE     FAIR      91  70  49 SW10G17   29.93F HX  97
FLORENCE       MOSUNNY   92  74  55 W8        29.94F HX 101
DARLINGTON     SUNNY     91  77  63 S13       29.93F HX 104
CHARLESTON APT MOSUNNY   91  74  57 SW6       29.96F HX 100
MOUNT PLEASANT FAIR      93  75  55 S6        29.96F HX 104
WALTERBORO     MOSUNNY   91  73  55 SW10G16   29.97F HX 100
BEAUFORT       PTSUNNY   93  76  57 VRB7      29.97F HX 105


...EASTERN GEORGIA...

CITY           SKY/WX    TMP DP  RH WIND       PRES   REMARKS
AUGUSTA BUSH F PTSUNNY   94  74  52 VRB3      29.95F HX 104
AUGUSTA DANIEL MOSUNNY   93  70  46 VRB7      29.98F HX  99
THOMSON        PTSUNNY   91  73  57 NW7       30.02F HX  99
WASHINGTON     FAIR     N/A N/A N/A W8        29.98F
CLAXTON        FAIR      93  71  48 SW3       29.98F HX 100
SYLVANIA       SUNNY     92  75  58 W6        29.99F HX 102
STATESBORO     SUNNY     92  67  44 CALM      29.98F HX  95
SAVANNAH       PTSUNNY   95  72  47 W8        29.98F HX 103


...SOUTHERN NORTH CAROLINA...

CITY           SKY/WX    TMP DP  RH WIND       PRES   REMARKS
CHARLOTTE      MOSUNNY   90  76  63 W8        29.94F HX 101
MONROE         SUNNY     90  71  53 SW9       29.93F HX  96
WADESBORO      SUNNY     93  70  46 S9        29.91F HX  98
ROCKINGHAM     SUNNY     92  72  51 SW7G18    29.92F HX  99
RUTHERFORDTON  MOSUNNY   87  71  58 S7        29.97F
ASHEVILLE      SUNNY     84  70  62 VRB3      30.02F

$$



USA.gov is the U.S. government's official web portal to all federal, state and local government web resources and services.